Location: Gleizolles
(44.4833°N, 6.7667°E)
Time: 17:11:43
(UTC+00:00)

Transit 2A - Pass Details

Date: 01 July 2024
Orbit: 591 x 960 km, 66.7° (Epoch: 16 July)

Event Time Altitude Azimuth Distance (km) Brightness Sun altitude
Rises 22:10:20 0° 320° (NW) 3,587 10.8 -19.6°
Reaches altitude 10° 22:13:04 10° 311° (NW) 2,669 9.7 -19.8°
Maximum altitude 22:18:35 33° 250° (WSW) 1,548 7.5 -20.2°
Enters shadow 22:21:22 23° 208° (SSW) 1,899 7.6 -20.3°
